Location: Unspecified
(0.0000°N, 0.0000°E)
Time: 11:16:14
(UTC+00:00)

Envisat - Pass Details

Date: 25 May 2020
Orbit: 764 x 766 km, 98.1° (Epoch: 30 May)

Event Time Altitude Azimuth Distance (km) Brightness Sun altitude
Rises 04:52:03 0° 49° (NE) 3,216 7.7 -15.1°
Reaches altitude 10° 04:55:41 10° 76° (ENE) 2,295 6.9 -14.3°
Maximum altitude 04:57:54 13° 103° (ESE) 2,098 6.1 -13.8°
Drops below altitude 10° 05:00:08 10° 129° (SE) 2,299 5.9 -13.2°
Sets 05:03:46 0° 156° (SSE) 3,229 6.3 -12.4°
